WO0TEN Weather Reports


time (UTC)temp
C
wind
direction
speed
KPH
gust
KPH
rain 1hr
cm
rain 24hr
cm
rain mn
cm
humidity
%
barometer
mb
20260506034108 24 248 1.6 0.0 0.00 0.00 0.74 8
20260506033108 24 270 3.2 0.0 0.00 0.00 0.74 8
20260506032106 25 270 3.2 0.0 0.00 0.00 0.74 8
20260506031107 25 270 1.6 0.0 0.00 0.00 0.74 8
20260506025107 25 270 1.6 0.0 0.00 0.00 0.74 8
20260506024109 25 248 0.0 0.0 0.00 0.00 0.74 8
20260506023108 25 270 0.0 0.0 0.00 0.00 0.74 8
20260506022108 25 248 0.0 0.0 0.00 0.00 0.74 8
20260506021107 25 248 0.0 0.0 0.00 0.00 0.74 8
20260506020107 25 270 1.6 0.0 0.00 0.00 0.74 8
20260506015107 25 270 0.0 0.0 0.00 0.00 0.74 8
20260506014108 26 225 0.0 0.0 0.00 0.00 0.74 8
20260506013108 26 248 1.6 0.0 0.00 0.00 0.74 8
20260506012107 26 270 3.2 0.0 0.00 0.00 0.74 8
20260506011107 26 270 1.6 0.0 0.00 0.00 0.74 7
20260506010107 27 270 3.2 0.0 0.00 0.00 0.74 7
20260506005107 27 293 3.2 0.0 0.00 0.00 0.74 7
20260506004107 27 270 3.2 0.0 0.00 0.00 0.74 7
20260506003107 27 293 3.2 0.0 0.00 0.00 0.74 7
20260506002108 27 225 1.6 0.0 0.00 0.00 0.74 7
20260506001108 27 270 0.0 0.0 0.00 0.00 0.74 7
20260506000107 28 0 3.2 0.0 0.00 0.00 0.74 7
20260505235107 28 270 1.6 0.0 0.00 0.00 0.74 7
20260505234107 28 248 3.2 0.0 0.00 0.00 0.74 7
20260505233107 28 293 3.2 0.0 0.00 0.00 0.74 7
20260505232107 28 180 1.6 0.0 0.00 0.00 0.74 7
20260505231108 28 338 1.6 0.0 0.00 0.00 0.74 7
20260505230108 28 270 3.2 0.0 0.00 0.00 0.74 7
20260505225107 28 270 6.4 0.0 0.00 0.00 0.74 7
20260505224108 28 270 3.2 0.0 0.00 0.00 0.74 7
20260505223108 29 270 3.2 0.0 0.00 0.00 0.74 7
20260505222108 29 315 3.2 0.0 0.00 0.00 0.74 7
20260505221108 30 270 1.6 0.0 0.00 0.00 0.74 7
20260505220107 30 203 0.0 0.0 0.00 0.00 0.74 6
20260505215107 30 338 1.6 0.0 0.00 0.00 0.74 7
20260505214107 30 248 3.2 0.0 0.00 0.00 0.74 6
20260505213107 31 338 4.8 0.0 0.00 0.00 0.74 6
20260505212108 30 23 3.2 0.0 0.00 0.00 0.74 6
20260505211108 30 270 3.2 0.0 0.00 0.00 0.74 6
20260505210108 31 270 1.6 0.0 0.00 0.00 0.74 6
20260505205107 31 293 4.8 0.0 0.00 0.00 0.74 6
20260505204108 31 270 1.6 0.0 0.00 0.00 0.74 6
20260505203107 31 248 1.6 0.0 0.00 0.00 0.74 6
20260505202107 31 270 3.2 0.0 0.00 0.00 0.74 6
20260505201108 31 0 3.2 0.0 0.00 0.00 0.74 6
20260505200107 30 270 3.2 0.0 0.00 0.00 0.74 6
20260505195107 31 23 4.8 0.0 0.00 0.00 0.74 6
20260505194107 30 270 6.4 0.0 0.00 0.00 0.74 6
20260505193108 30 203 1.6 0.0 0.00 0.00 0.74 6
20260505192108 30 315 1.6 0.0 0.00 0.00 0.74 6
20260505191107 29 248 1.6 0.0 0.00 0.00 0.74 7
20260505190108 30 315 4.8 0.0 0.00 0.00 0.74 7
20260505185107 28 135 3.2 0.0 0.00 0.00 0.74 7
20260505184107 28 315 4.8 0.0 0.00 0.00 0.74 7
20260505183107 28 315 3.2 0.0 0.00 0.00 0.74 7
20260505182106 27 293 4.8 0.0 0.00 0.00 0.74 7
20260505181108 27 270 4.8 0.0 0.00 0.00 0.74 7
20260505180107 27 0 3.2 0.0 0.00 0.00 0.74 7
20260505175107 26 293 3.2 0.0 0.00 0.00 0.74 7
20260505174107 25 338 3.2 0.0 0.00 0.00 0.74 8
20260505173109 25 23 1.6 0.0 0.00 0.00 0.74 8
20260505172107 25 315 0.0 0.0 0.00 0.00 0.74 8
20260505171107 24 248 3.2 0.0 0.00 0.00 0.74 8
20260505170108 23 270 4.8 0.0 0.00 0.00 0.74 8
20260505165108 23 315 1.6 0.0 0.00 0.00 0.74 8
20260505164107 23 315 3.2 0.0 0.00 0.00 0.74 8
20260505163108 23 45 0.0 0.0 0.00 0.00 0.74 8
20260505162107 23 90 3.2 0.0 0.00 0.00 0.74 8
20260505161108 23 338 3.2 0.0 0.00 0.00 0.74 8
20260505160108 23 270 1.6 0.0 0.00 0.00 0.74 8
20260505153108 22 270 1.6 0.0 0.00 0.00 0.74 8
20260505152110 22 270 3.2 0.0 0.00 0.00 0.74 8
20260505151108 22 45 3.2 0.0 0.00 0.00 0.74 9
20260505150107 22 270 3.2 0.0 0.00 0.00 0.74 9
20260505140107 21 0 3.2 0.0 0.00 0.00 0.74 9
20260505130107 21 315 3.2 0.0 0.00 0.00 0.74 9
20260505124108 21 293 0.0 0.0 0.00 0.00 0.74 9
20260505123107 21 0 1.6 0.0 0.00 0.00 0.74 9
20260505122107 21 293 1.6 0.0 0.00 0.00 0.74 9
20260505121107 21 270 1.6 0.0 0.00 0.00 0.74 9
20260505120107 21 270 0.0 0.0 0.00 0.00 0.74 9
20260505115107 21 293 1.6 0.0 0.00 0.00 0.74 9
20260505114108 21 293 3.2 0.0 0.00 0.00 0.74 9
20260505113107 21 68 3.2 0.0 0.00 0.00 0.74 9
20260505112106 21 203 3.2 0.0 0.00 0.00 0.74 9
20260505111107 21 293 1.6 0.0 0.00 0.00 0.74 9
20260505110108 21 315 6.4 0.0 0.00 0.00 0.74 9
20260505102107 21 338 6.4 0.0 0.00 0.00 0.74 9
20260505101107 21 270 3.2 0.0 0.00 0.00 0.74 9
20260505100108 21 270 0.0 0.0 0.00 0.00 0.74 9
20260505095107 21 270 3.2 0.0 0.00 0.00 0.74 9
20260505094107 21 270 1.6 0.0 0.00 0.00 0.74 9
20260505093108 21 338 3.2 0.0 0.00 0.00 0.74 9
20260505092107 21 270 3.2 0.0 0.00 0.00 0.74 9
20260505091107 21 270 3.2 0.0 0.00 0.00 0.74 9
20260505090109 21 270 0.0 0.0 0.00 0.00 0.74 9
20260505085107 21 270 4.8 0.0 0.00 0.00 0.74 9
20260505084107 21 293 3.2 0.0 0.00 0.00 0.74 9
20260505083107 21 315 3.2 0.0 0.00 0.00 0.74 8
20260505082106 21 293 6.4 0.0 0.00 0.00 0.74 8
20260505081107 21 315 3.2 0.0 0.00 0.00 0.74 8
20260505080107 21 23 4.8 0.0 0.00 0.00 0.74 8
20260505075107 21 225 3.2 0.0 0.00 0.00 0.74 8
20260505074108 21 270 3.2 0.0 0.00 0.00 0.74 8
20260505073107 21 270 3.2 0.0 0.00 0.00 0.74 8
20260505072107 21 270 3.2 0.0 0.00 0.00 0.74 8
20260505071107 21 293 4.8 0.0 0.00 0.00 0.74 8
20260505070107 21 338 3.2 0.0 0.00 0.00 0.74 8
20260505065107 21 248 6.4 0.0 0.00 0.00 0.74 8
20260505064107 21 270 1.6 0.0 0.00 0.00 0.74 8
20260505063107 21 90 3.2 0.0 0.00 0.00 0.74 8
20260505062107 21 45 3.2 0.0 0.00 0.00 0.74 8
20260505061107 21 315 4.8 0.0 0.00 0.00 0.74 8
20260505060107 21 338 6.4 0.0 0.00 0.00 0.74 8
20260505055107 21 293 3.2 0.0 0.00 0.00 0.74 8
20260505054107 21 225 1.6 0.0 0.00 0.00 0.74 8
20260505053107 21 293 3.2 0.0 0.00 0.00 0.74 8
20260505052107 21 180 0.0 0.0 0.00 0.00 0.74 8
20260505051107 21 90 1.6 0.0 0.00 0.00 0.74 8
20260505050108 22 270 3.2 0.0 0.00 0.00 0.74 8
20260505041107 22 270 3.2 0.0 0.00 0.00 0.74 8
20260505040107 22 293 3.2 0.0 0.00 0.00 0.74 8
20260505035107 22 293 3.2 0.0 0.00 0.00 0.74 8